sat.trackr.live / text

‹ back to catalog

YAOGAN-30 04C

NORAD 43083 · 2017-085C

PAYLOAD ACTIVE UNKNOWN

§ Identity

Operator
Country
PRC
Launch date
2017-12-25
Launch site
XICLF
Launch vehicle
Mass (kg)
RCS (m²)

External: N2YO · Heavens-Above · Gunter

§ Orbital elements

Epoch: 2026-05-24T21:03:03.551616Z

Period
95.84 min
Inclination
34.9956°
Eccentricity
0.0005398
Mean motion
15.02522307 rev/d
Perigee alt
555.4 km
Apogee alt
562.9 km
Semi-major
6,937.3 km
B*
1.7183e-4
RAAN
292.6264°
Arg perigee
291.4404°
Mean anomaly
68.5728°
Rev number
45,924

§ Raw data

YAOGAN-30 04C1 43083U 17085C   26144.87712444  .00002301  00000+0  17183-3 0  99912 43083  34.9956 292.6264 0005398 291.4404  68.5728 15.02522307459243

JSON: /api/v1/satellites/43083 · /tle

For live sub-satellite position, see the globe view (requires WebGL).

§ Visibility from observer

Set your observer location to see the next 7 days of passes ≥ 10°. The values pass through the URL so the page stays shareable.

No JS? Fill the form by hand. The geolocation button needs JavaScript.